Flag for Spain Weather past 2 weeks in Las Palmas, Canary Islands, Spain

Now
75 °F

Scattered clouds.


Feels Like: 77 °F
Forecast: 76 / 81 °F
Wind: 17 mph from North

Location: Las Palmas De Gran Canaria / Gando

Current Time: Sep 30, 2014 at 9:11:38 PM

Latest Report: Sep 30, 2014 at 8:30 PM


Visibility: N/A

Pressure: 30.09 "Hg

Humidity: 65%

Dew point: 63 °F

Location of Las PalmasLocation

Historic Weather in Las Palmas — Graph

°F

Las Palmas temperature yesterday

Maximum temperature yesterday: 81 °F (at 11:30 AM)
Minimum temperature yesterday: 73 °F (at 1:00 AM)
Average temperature yesterday: 77 °F

Past Weeks' High & Low Weather Summary

 TemperatureHumidityPressure
High84 °F (Sep 17, 4:00 PM)88% (Sep 18, 4:00 AM)30.21 "Hg (Sep 18, 4:00 AM)
Low70 °F (Sep 20, 6:00 AM)48% (Sep 18, 12:30 PM)29.89 "Hg (Sep 16, 4:30 AM)
Average77 °F67%30.05 "Hg
* Reported Sep 15 8:00 PM — Sep 30 8:00 PM, Las Palmas, Weather by CustomWeather, © 2014

Note: Actual official high and low records may vary slightly from our data, if they occured in-between our weather recording intervals... More about our weather records

Advertising

Las Palmas weather history for previous 24 hours

 ConditionsComfort  
Time TempWeatherWind HumidityBarometerVisibility
8:00 PM
Sep 30
75 °FScattered clouds.20 mph65%30.09 "HgN/A
7:30 PM77 °FScattered clouds.20 mph61%30.09 "HgN/A
7:00 PM77 °FPassing clouds.22 mph61%30.09 "HgN/A
6:30 PM79 °FPassing clouds.22 mph58%30.09 "HgN/A
6:00 PM79 °FPassing clouds.24 mph58%30.09 "HgN/A
5:30 PM79 °FScattered clouds.24 mph58%30.09 "HgN/A
5:00 PM79 °FScattered clouds.22 mph58%30.09 "HgN/A
4:30 PM79 °FPartly sunny.23 mph61%30.09 "HgN/A
4:00 PM81 °FPartly sunny.23 mph54%30.09 "HgN/A
3:30 PM79 °FScattered clouds.25 mph61%30.09 "HgN/A
3:00 PM81 °FScattered clouds.26 mph58%30.09 "HgN/A
2:30 PM81 °FScattered clouds.28 mph58%30.09 "HgN/A
2:00 PM81 °FScattered clouds.25 mph58%30.12 "HgN/A
1:30 PM81 °FScattered clouds.28 mph58%30.12 "HgN/A
1:00 PM81 °FScattered clouds.24 mph58%30.12 "HgN/A
12:30 PM81 °FScattered clouds.23 mph54%30.15 "HgN/A
12:00 PM81 °FScattered clouds.23 mph54%30.15 "HgN/A
11:30 AM81 °FPassing clouds.23 mph54%30.15 "HgN/A
11:00 AM79 °FPassing clouds.22 mph58%30.15 "HgN/A
10:30 AM79 °FPassing clouds.20 mph58%30.15 "HgN/A
10:00 AM77 °FPassing clouds.21 mph61%30.12 "HgN/A
9:30 AM75 °FPassing clouds.18 mph65%30.12 "HgN/A
9:00 AM73 °FPassing clouds.15 mph69%30.12 "HgN/A
8:30 AM73 °FPassing clouds.14 mph69%30.12 "HgN/A
8:00 AM73 °FPassing clouds.13 mph69%30.12 "HgN/A
7:30 AM73 °FPassing clouds.15 mph69%30.12 "HgN/A
7:00 AM73 °FPassing clouds.15 mph69%30.12 "HgN/A
6:30 AM73 °FPassing clouds.15 mph69%30.09 "HgN/A
6:00 AM73 °FPassing clouds.14 mph69%30.09 "HgN/A
5:30 AM73 °FPassing clouds.14 mph69%30.12 "HgN/A
5:00 AM73 °FPassing clouds.13 mph69%30.12 "HgN/A
4:30 AM73 °FPassing clouds.15 mph69%30.12 "HgN/A
4:00 AM73 °FPassing clouds.15 mph65%30.12 "HgN/A
3:30 AM73 °FPassing clouds.16 mph69%30.12 "HgN/A
3:00 AM73 °FPassing clouds.20 mph69%30.15 "HgN/A
2:30 AM73 °FPassing clouds.15 mph74%30.15 "HgN/A
2:00 AM73 °FPassing clouds.13 mph69%30.18 "HgN/A
1:30 AM73 °FPassing clouds.14 mph74%30.18 "HgN/A
1:00 AM75 °FPassing clouds.17 mph65%30.18 "HgN/A
12:30 AM75 °FPassing clouds.20 mph69%30.18 "HgN/A
12:00 AM75 °FPassing clouds.16 mph69%30.18 "HgN/A
11:30 PM
Sep 29
75 °FPassing clouds.17 mph65%30.18 "HgN/A
11:00 PM75 °FPassing clouds.17 mph65%30.18 "HgN/A
10:30 PM75 °FPassing clouds.17 mph65%30.18 "HgN/A
10:00 PM75 °FPassing clouds.21 mph65%30.18 "HgN/A
9:30 PM75 °FPassing clouds.21 mph65%30.18 "HgN/A
9:00 PM75 °FPassing clouds.20 mph65%30.18 "HgN/A
Weather by CustomWeather, © 2014

See weather overviewHow to use our weather pages